Regional Weather Roundup
Issued by NWS

Home | Current Version | Previous Version | Text Only | Print | Product List | Glossary On
Versions: 1 2 3 4 5 6 7 8 9 10 11 12 13 14 15 16 17 18 19 20 21 22 23 24 25 26 27 28 29 30 31 32 33 34 35 36 37 38 39 40 41 42 43 44 45 46 47 48 49 50
000
ASUS43 KFSD 230710
RWRSD

WEATHER ROUNDUP FOR SOUTH DAKOTA
NATIONAL WEATHER SERVICE SIOUX FALLS SD
200 AM CDT SUN JUL 23 2017

NOTE: "FAIR" INDICATES FEW OR NO CLOUDS BELOW 12,000 FEET WITH NO
SIGNIFICANT WEATHER AND/OR OBSTRUCTIONS TO VISIBILITY.


SDZ001>005-009-010-012>017-230800-
NORTHWEST AND NORTH CENTRAL SOUTH DAKOTA

CITY           SKY/WX    TMP DP  RH WIND       PRES   REMARKS
BUFFALO          N/A     64  48  56 W5        30.04R
FAITH            N/A     64  46  52 NE10      30.07S
MOBRIDGE       CLEAR     65  56  72 NE7       30.01R
$$

SDZ012>016-024>037-041>051-057-063-072>074-230800-
SOUTHWEST AND SOUTH CENTRAL SOUTH DAKOTA

CITY           SKY/WX    TMP DP  RH WIND       PRES   REMARKS
RAPID CTY ARPT CLEAR     63  44  50 NW9       30.12R
PIERRE         CLEAR     63  49  60 NE3       30.00S
CUSTER         CLEAR     62  34  35 E12       30.26R
ELLSWORTH AFB  CLEAR     68  43  40 NW8       30.12R
PHILIP         CLEAR     61  43  51 CALM      30.05R
PINE RIDGE     CLEAR     62  57  83 NE7       30.10S
SPEARFISH      FAIR      61  41  48 S10       30.17F
WINNER         FAIR      69  53  56 N5        30.01R
$$

SDZ004>011-016>023-039-040-230800-
NORTHEAST SOUTH DAKOTA

CITY           SKY/WX    TMP DP  RH WIND       PRES   REMARKS
ABERDEEN       CLEAR     64  59  83 N6        29.98R
WATERTOWN      CLEAR     62  59  90 N3        29.95F
BROOKINGS      CLEAR     67  59  75 N9        29.96R
SISSETON         N/A     63  60  90 NW7       29.93S
$$

SDZ017-020-022-023-036>040-048>070-230800-
SOUTHEAST SOUTH DAKOTA

CITY           SKY/WX    TMP DP  RH WIND       PRES   REMARKS
SIOUX FALLS    CLEAR     70  64  81 NW9       29.94R
HURON          CLEAR     64  60  87 NW5       29.97R
CHAMBERLAIN    CLEAR     75  52  44 N8        29.99S
MITCHELL       CLEAR     68  61  78 NW5       29.96S
YANKTON        CLEAR     70  66  87 S3        29.94S
$$

ABBREVIATIONS USED IN REMARKS
   TC - TEMPERATURE IN CELSIUS
  WCI - WIND CHILL INDEX
   HX - HEAT INDEX
  VSB - VISIBILITY





USA.gov is the U.S. government's official web portal to all federal, state and local government web resources and services.